User: anonymous   Login
Location: Unspecified
(0.0000°N, 0.0000°E)
Time: 07:43:02
(UTC+00:00)
Language:

NOSS 2-1 (E) - Orbit

View from above orbital plane
View from above orbital plane
View from above satellite
View from above satellite

Ground track
Ground track

The orbit data is extracted from the following two-line orbital elements,

1 20642U 90050E   18229.86510636 0.00000140  00000-0  29601-4 0    05
2 20642  63.3324 168.6832 0823413  33.9748 326.0252 13.41795287    03
Epoch (UTC): 17 August 2018 20:45:45
Eccentricity: 0.0823413
inclination: 63.3324°
perigee height: 486 km
apogee height: 1718 km
right ascension of ascending node: 168.6832°
argument of perigee: 33.9748°
revolutions per day: 13.41795287
mean anomaly at epoch: 326.0252°
orbit number at epoch: 0

The dashed part of the orbit path shows where the satellite is in the earth's shadow,  

DLR